Wind_Speed
19 19 18 17 16 16 15 15 15 16 16 16 17 19 21 23 24 24 24 24 23 21 21 20 19 19 20 21 21 20 20 19 18 18 18 17 17 17 17 17 17 16 17 18 18 19 19 20 21 23 24 26 27 29 30 32 33 34 36 37 39 40 41 42 45 49 52 55 58 62 65 67 69 72 74 76 77 79 81 84 86 89 90 88 90 95 96
17 17 16 15 14 14 14 14 15 15 16 17 19 21 22 24 25 24 24 23 22 21 21 20 20 20 21 21 21 20 19 19 19 18 18 18 18 19 19 19 18 18 18 19 21 21 22 23 24 25 26 28 29 31 32 34 35 36 38 39 41 42 42 42 44 47 49 52 55 59 64 67 69 71 74 76 77 79 81 83 85 87 90 89 89 92 96
15 15 14 13 13 13 13 14 15 16 17 19 20 22 23 24 24 24 23 22 21 21 20 20 21 21 21 22 21 20 19 19 18 19 19 19 20 20 21 21 20 20 21 21 22 24 24 25 26 27 28 30 31 33 34 36 37 38 40 41 43 44 46 46 47 49 51 54 58 61 66 69 71 72 75 77 78 79 81 84 85 86 89 92 92 91 93
14 13 13 12 13 14 14 15 16 18 19 20 22 23 24 25 24 23 22 22 21 20 20 21 22 22 22 22 21 21 20 19 19 19 20 20 21 22 22 23 23 23 23 23 24 25 26 27 28 29 30 32 33 34 36 38 39 40 41 42 44 46 49 50 51 53 56 59 62 65 68 71 73 73 75 77 77 79 81 84 86 87 88 91 93 91 91
13 12 12 13 14 15 16 17 18 19 20 21 23 24 25 25 24 23 22 21 20 21 21 22 23 23 23 23 22 21 20 20 20 20 21 21 22 22 23 24 24 25 25 25 26 26 27 28 29 30 32 33 34 36 37 38 40 41 42 43 45 47 50 53 53 55 58 60 63 66 68 71 74 74 75 77 78 79 81 83 86 88 87 88 92 93 93
12 12 13 14 15 16 17 18 19 20 22 23 24 25 25 24 23 22 21 21 21 21 21 22 23 23 24 23 23 22 22 22 22 22 22 22 22 23 24 25 26 27 27 27 28 28 29 29 30 32 33 34 36 37 38 39 40 42 43 44 46 48 50 54 56 57 59 61 64 67 69 72 74 75 75 76 78 78 80 82 85 87 88 87 89 92 93
12 13 14 15 16 17 18 19 20 22 23 24 25 25 24 24 23 22 21 21 20 21 22 22 23 24 24 24 24 23 23 23 23 24 23 23 24 25 25 26 27 28 29 29 30 30 30 31 32 33 34 35 37 38 39 40 41 42 44 45 46 48 51 53 57 59 61 63 65 68 70 72 74 75 75 76 78 78 79 81 84 86 87 87 88 90 92
13 13 14 15 16 17 18 19 21 22 24 24 25 25 24 24 23 22 21 21 21 21 22 23 24 25 25 25 25 25 25 25 25 25 26 26 27 27 28 28 29 30 31 31 32 32 32 33 34 35 36 36 38 39 40 41 42 43 45 46 48 49 51 53 56 59 61 64 66 68 70 72 74 75 74 75 78 79 79 81 83 85 86 87 88 89 91
13 14 15 15 16 17 18 19 21 23 24 25 25 25 24 24 23 22 21 21 21 21 22 24 25 26 26 27 26 26 26 27 27 28 28 29 29 30 30 31 32 32 32 33 34 34 34 35 35 36 37 38 39 40 41 43 44 45 46 48 50 51 53 55 57 60 62 64 66 68 70 72 73 74 73 74 77 80 80 81 83 85 85 86 87 89 91
13 13 14 14 15 16 18 20 21 23 24 25 25 25 25 24 23 23 22 21 22 22 23 24 25 27 27 28 28 28 28 29 30 30 31 31 32 33 33 34 34 34 34 34 35 36 37 37 37 38 39 39 40 41 42 44 45 47 48 50 52 53 55 56 58 61 64 65 67 69 70 72 73 73 72 73 76 79 81 81 83 85 86 86 87 89 91
12 12 13 14 15 16 18 20 22 23 24 24 25 25 25 25 24 23 22 22 23 23 24 25 26 27 28 29 29 30 31 31 32 33 33 34 35 35 36 36 36 36 36 36 37 38 38 39 40 40 41 41 42 43 44 45 47 49 50 52 54 55 57 58 60 61 64 66 68 70 71 72 73 72 73 73 74 77 81 82 84 86 88 88 88 89 90
11 12 12 13 14 16 18 20 22 23 23 24 24 25 25 25 24 24 23 23 23 24 24 25 27 28 29 30 31 32 32 33 34 35 36 37 38 38 39 39 39 39 38 38 39 39 40 41 42 42 43 44 45 45 46 47 49 51 53 54 56 58 59 60 62 63 64 66 68 69 71 72 72 73 73 73 73 74 77 81 83 85 86 86 87 89 90
11 11 12 13 14 16 18 20 21 22 23 23 24 25 26 25 25 25 25 24 24 25 25 26 27 28 30 31 32 33 34 35 35 36 37 38 39 40 40 41 41 41 41 41 41 41 42 43 44 44 45 46 47 48 49 50 52 54 56 57 58 59 60 61 62 63 64 66 68 69 71 72 73 73 72 72 71 71 73 77 81 82 84 85 86 88 89
10 11 12 13 14 15 17 19 20 21 22 23 23 24 25 26 26 26 26 26 26 26 27 28 28 29 30 32 32 33 34 35 35 36 37 38 39 40 41 41 41 42 42 42 43 43 44 45 45 46 47 49 50 51 52 53 55 56 58 59 60 61 62 62 63 64 65 66 68 69 70 71 71 71 71 71 71 70 71 75 78 81 83 84 84 86 88
9 11 12 13 14 15 17 18 20 20 21 22 23 24 25 26 26 27 27 27 28 28 28 29 30 30 31 32 32 33 34 34 35 35 36 37 38 40 40 41 42 43 43 44 45 45 46 47 47 48 50 51 52 53 54 55 57 58 60 61 62 63 64 64 65 66 66 67 68 68 68 69 69 70 70 70 70 70 71 73 76 79 80 81 83 85 87
9 10 12 13 14 15 17 18 19 20 20 21 22 24 25 26 27 28 28 29 29 29 30 30 31 31 32 32 32 33 33 34 34 35 35 36 37 39 40 41 42 43 44 45 46 47 48 49 50 51 52 53 54 55 56 57 58 60 61 63 63 64 65 66 67 68 68 69 70 70 70 70 70 71 71 70 70 70 70 72 73 75 78 79 81 84 86
9 10 11 13 14 16 17 18 19 20 21 22 23 24 25 26 27 28 29 30 30 31 32 32 33 33 33 33 34 34 34 35 35 35 36 36 37 38 39 41 42 44 45 47 48 49 50 50 51 53 54 54 55 56 58 58 59 60 61 63 64 65 66 67 67 68 69 69 70 72 73 72 72 72 72 71 70 71 71 72 74 75 77 79 82 84 85
9 10 11 13 14 16 17 18 19 20 22 23 24 25 26 27 28 29 30 31 32 33 34 34 35 35 35 35 36 36 36 37 37 37 37 37 38 38 39 41 42 44 45 47 48 49 51 52 52 53 55 56 56 58 59 59 59 60 61 63 64 65 66 67 67 68 69 69 70 72 73 74 74 73 72 70 70 71 73 74 76 77 78 79 82 84 84
10 11 12 13 14 15 17 18 19 21 22 23 24 26 27 28 29 30 31 32 33 34 35 36 36 37 38 38 38 39 39 39 39 39 39 40 40 40 41 41 42 43 45 46 47 48 50 52 52 53 54 56 57 58 59 59 60 60 61 62 63 63 64 66 67 68 69 70 71 71 72 72 72 71 70 70 70 71 73 75 77 78 79 80 82 83 83
12 12 13 14 15 16 17 18 19 21 22 23 24 26 27 28 29 30 31 32 34 35 36 37 37 39 39 40 40 41 41 42 42 42 42 42 42 42 42 43 44 44 45 47 47 48 50 51 52 53 53 55 56 56 58 59 60 60 61 62 63 64 64 66 68 69 70 71 72 72 71 70 71 70 69 70 71 72 73 74 76 77 79 81 82 83 82
13 14 14 15 16 17 18 19 20 21 22 23 24 25 27 28 28 30 31 32 33 35 36 37 37 39 40 41 42 42 43 43 44 44 44 45 45 45 45 46 46 47 47 48 49 49 50 51 52 53 54 55 56 57 57 58 60 62 62 62 64 65 66 67 68 70 71 72 73 74 72 70 71 72 71 71 71 72 72 73 75 76 78 80 81 81 80
14 15 16 17 17 18 19 20 21 21 22 23 24 25 26 27 28 29 30 31 33 34 35 36 37 38 39 41 42 43 44 44 45 45 46 46 47 47 48 48 49 49 49 50 50 51 52 52 53 54 55 55 56 57 58 58 59 61 63 63 64 65 67 68 69 71 73 74 75 75 75 72 71 71 72 72 71 71 72 73 74 76 78 80 80 79 79
16 17 17 18 18 19 20 21 21 22 23 24 24 25 26 27 28 29 29 30 32 33 34 35 36 37 38 40 41 42 43 44 45 46 47 48 48 49 49 49 50 51 51 51 52 53 53 54 54 55 56 57 57 58 60 60 61 62 63 64 65 66 67 68 70 71 73 75 75 76 76 74 72 71 71 70 70 71 72 73 74 76 77 78 78 77 78
17 18 18 19 19 20 21 21 22 23 23 24 25 25 26 27 28 29 30 31 32 32 33 34 35 36 37 38 39 40 41 43 44 46 47 48 49 50 50 50 51 51 52 52 53 53 54 55 55 56 57 58 59 59 61 61 62 63 63 64 65 66 67 68 69 71 72 72 73 74 75 74 72 70 69 68 69 71 72 73 74 75 76 76 76 77 78
18 18 19 19 20 20 21 21 22 23 23 24 24 25 26 27 28 29 30 31 32 32 33 34 35 36 37 37 38 39 39 40 41 43 44 45 47 48 49 50 51 51 52 53 53 54 54 55 56 56 57 58 59 60 62 62 62 63 64 64 65 66 66 67 68 70 72 72 71 72 73 73 71 69 68 68 69 70 72 73 73 73 73 74 76 78 79
18 18 19 19 20 20 21 21 22 22 23 23 24 25 26 28 28 29 30 30 31 32 33 34 35 36 36 37 38 39 39 40 40 40 41 42 43 44 45 47 48 50 51 52 52 53 54 55 55 56 57 58 59 61 62 62 63 63 64 64 65 66 66 66 67 69 71 70 70 69 68 68 67 66 67 68 69 70 71 71 71 72 73 74 77 78 80
18 18 18 19 19 20 21 21 21 22 23 23 24 25 26 26 27 27 27 28 28 29 30 31 32 33 34 35 37 38 39 39 40 40 40 40 40 41 41 42 44 45 47 48 50 51 52 53 55 56 56 57 58 60 62 62 63 64 63 64 66 66 66 67 66 67 68 68 67 65 63 62 63 64 66 67 68 68 69 69 70 71 73 75 77 79 81
17 17 18 18 19 20 20 21 21 22 23 23 23 24 24 25 25 26 27 28 29 29 30 31 32 33 33 34 35 36 37 38 39 39 40 40 40 40 40 40 41 42 42 44 45 46 48 49 50 52 53 53 54 57 58 59 60 61 61 61 63 64 64 65 64 64 65 65 64 62 61 60 62 64 66 67 67 66 67 68 70 72 74 76 78 80 81
15 16 17 17 18 18 19 19 20 21 21 22 23 24 25 26 27 28 29 31 32 33 34 34 35 35 35 36 36 36 36 37 37 38 39 40 40 40 40 40 40 41 41 41 42 43 44 45 46 47 48 48 49 51 53 54 55 56 56 57 58 60 61 61 61 60 61 60 59 60 60 61 62 64 65 65 65 66 67 69 72 74 76 77 79 81 82
14 15 15 16 17 17 18 19 19 21 22 23 25 26 28 29 31 32 33 35 36 37 37 38 38 38 38 37 37 37 37 37 37 38 38 39 40 40 41 41 41 41 41 41 42 42 43 44 46 46 47 47 47 49 51 51 52 54 55 54 55 57 58 59 58 57 55 54 55 57 60 61 62 63 63 64 65 67 69 71 73 75 77 78 79 81 83
15 15 16 17 18 18 19 20 22 23 25 26 28 30 32 33 35 36 37 38 39 39 39 39 39 39 38 38 38 37 37 37 38 38 38 39 39 40 40 41 41 42 42 42 43 44 44 45 46 48 49 49 49 50 51 51 52 54 55 54 54 55 55 56 55 53 51 51 53 55 58 60 60 61 62 65 68 70 71 73 75 76 78 79 81 83 85
17 17 18 19 21 22 23 24 26 27 29 30 32 33 34 35 35 36 37 37 38 38 38 38 38 38 38 38 38 38 38 38 38 38 38 38 39 39 39 40 40 41 41 42 42 44 46 47 48 49 50 50 50 51 52 52 51 52 52 51 50 50 51 51 51 51 51 52 53 54 55 57 60 62 64 67 70 71 73 74 76 78 80 81 83 84 86
20 21 22 23 24 25 26 27 28 28 29 29 29 29 30 30 31 31 32 33 33 34 35 35 36 36 37 37 37 37 37 37 37 37 37 37 38 37 37 38 39 39 40 41 42 44 46 47 48 49 49 49 49 50 51 50 48 47 47 46 45 45 46 47 49 51 52 54 54 53 54 57 61 64 66 68 70 72 75 76 78 79 81 82 83 84 86
23 23 24 24 25 25 25 25 24 24 24 24 24 25 26 27 27 28 29 30 31 32 32 33 33 34 34 34 34 35 34 34 35 35 35 35 35 35 36 36 37 38 39 40 41 43 44 46 46 47 47 46 45 44 45 45 43 42 41 41 42 42 44 46 49 51 53 54 54 55 57 60 64 66 68 69 71 74 76 78 79 81 82 83 84 85 86
23 22 22 21 21 20 20 19 19 20 21 21 23 24 25 26 27 27 28 28 28 29 29 30 30 30 30 30 31 31 30 30 31 31 31 31 32 32 33 34 35 36 37 38 39 40 41 41 41 40 40 39 38 37 37 38 39 39 39 40 41 42 44 46 48 51 53 56 57 59 61 63 66 67 69 72 74 76 78 80 81 82 83 84 85 86 87
19 18 17 16 16 15 16 16 17 18 19 20 20 21 21 22 22 22 22 22 23 23 23 23 24 24 25 25 25 25 25 26 26 26 27 28 28 29 31 31 32 34 34 34 34 34 34 34 34 33 33 33 34 34 35 35 36 38 39 41 43 44 46 48 50 52 56 59 61 63 64 66 68 71 73 75 77 79 80 81 82 83 84 85 86 86 87
14 13 13 13 13 13 14 14 15 15 16 16 17 17 18 19 19 20 20 21 21 21 22 22 22 23 23 23 23 23 23 23 23 23 24 24 25 26 27 28 29 29 29 29 29 29 29 30 30 31 31 32 34 35 36 36 37 39 41 44 47 49 51 53 55 56 58 61 64 67 68 69 71 74 77 78 79 80 81 82 83 83 84 85 85 86 86
11 11 11 11 11 11 11 12 13 14 15 16 17 18 20 21 22 22 23 23 24 24 24 24 24 24 24 24 24 24 24 23 23 24 24 24 25 25 26 26 27 27 28 27 28 29 29 30 31 33 34 35 36 38 40 41 43 44 45 47 50 52 55 57 59 60 61 63 67 70 72 73 73 75 77 78 78 80 81 82 82 83 84 85 86 87 88
9 9 9 9 9 10 11 12 14 16 17 18 20 21 22 22 23 24 24 25 25 25 25 26 25 25 25 26 26 26 26 26 26 26 26 26 27 27 27 27 28 29 29 30 30 31 32 33 34 36 37 39 41 42 44 46 48 49 50 51 53 55 58 60 63 65 66 67 70 72 75 76 75 75 76 77 77 78 80 82 83 85 86 88 90 91 93
7 8 8 8 9 10 12 14 16 17 18 19 20 21 21 22 22 23 23 24 25 25 25 26 26 27 27 27 28 28 29 29 29 29 28 29 29 29 29 30 31 31 32 33 34 35 36 37 38 38 39 41 43 44 46 47 50 52 54 55 56 59 61 64 66 69 69 70 71 72 74 76 77 77 78 79 79 81 83 85 87 89 91 92 94 96 97
7 8 9 10 11 12 13 15 16 16 17 18 18 18 19 20 21 22 23 24 25 26 26 27 28 29 29 30 31 32 32 32 33 33 33 33 33 33 34 34 34 35 36 37 38 38 39 40 41 42 43 43 44 46 47 49 52 55 58 60 61 63 65 67 69 71 72 72 72 73 75 77 79 80 82 83 84 86 88 90 91 93 95 97 98 100 101
8 9 10 10 11 12 13 13 14 14 15 15 16 17 18 19 21 22 24 25 27 28 29 30 31 32 33 34 34 35 35 36 36 37 37 37 37 38 38 38 38 38 39 40 41 42 42 43 44 46 47 48 49 50 51 53 56 59 63 66 67 69 70 71 73 74 76 77 76 77 78 80 82 84 86 87 89 91 93 95 97 98 99 101 102 103 105
9 9 9 10 10 10 11 11 12 13 14 15 16 17 19 20 22 23 25 26 28 29 31 32 33 34 35 35 36 37 37 37 38 38 39 39 39 39 40 40 41 41 42 43 45 46 48 48 49 50 52 53 54 55 57 60 62 65 69 72 74 75 76 77 77 78 79 81 82 82 83 84 85 87 89 91 93 95 97 99 100 101 103 104 105 107 108
8 8 8 8 8 9 10 11 12 14 15 17 18 20 21 22 24 25 26 27 28 29 31 32 33 34 35 36 37 37 38 39 40 41 41 42 42 41 41 42 42 43 45 47 49 52 53 54 55 55 55 56 57 60 63 67 69 71 72 75 78 79 80 81 82 82 82 83 84 85 86 86 87 89 91 94 96 98 99 101 103 104 105 106 108 109 111
5 6 6 7 9 10 12 14 16 17 19 20 22 23 24 26 27 28 29 29 30 31 32 33 34 35 36 37 38 38 39 40 41 42 43 43 43 44 44 44 44 45 47 50 52 55 56 57 57 57 57 58 60 64 68 71 73 74 75 77 79 81 82 83 84 84 84 85 85 86 87 88 89 90 92 94 97 99 101 103 104 106 107 109 110 112 113
5 6 7 9 10 12 14 16 18 20 21 23 24 26 27 29 30 31 32 33 34 35 36 37 38 39 39 40 41 41 41 41 42 43 44 44 45 45 46 47 48 48 49 51 53 56 57 58 58 59 59 60 63 67 71 74 76 77 78 79 80 81 83 84 85 86 87 87 88 89 90 91 92 93 94 95 97 100 103 105 107 109 110 111 113 115 116
6 8 9 11 12 14 15 17 18 20 23 25 26 28 30 32 34 35 36 37 38 39 40 41 42 43 43 43 44 44 45 45 45 46 47 46 46 47 48 50 51 52 53 53 55 56 58 58 59 60 62 64 67 70 73 75 77 79 81 81 82 83 84 86 87 88 90 90 91 92 93 94 96 96 97 98 99 102 105 107 109 111 112 114 115 117 120
8 10 12 14 16 17 18 19 21 22 25 27 29 31 33 35 37 38 40 41 41 42 43 44 45 46 47 47 47 48 48 48 48 49 50 50 49 50 51 53 55 56 57 57 58 59 60 61 62 64 66 69 72 74 76 78 80 82 83 84 85 86 87 89 90 92 94 95 96 97 98 99 100 101 101 102 103 105 107 109 111 113 115 116 119 121 124
12 13 15 17 19 20 22 23 25 26 28 31 33 35 37 38 40 41 43 44 45 46 46 48 48 49 50 50 50 51 51 52 52 53 54 54 54 55 56 57 59 60 61 62 62 63 64 66 67 69 71 73 76 78 80 82 84 86 87 89 90 91 92 94 95 96 98 100 101 102 103 104 105 105 106 106 106 107 109 112 114 116 118 121 123 126 128
16 17 19 20 21 23 25 27 29 31 33 34 36 38 40 41 43 44 45 46 48 48 49 51 51 52 53 53 54 55 55 56 57 57 58 59 60 61 61 63 64 64 65 66 67 69 70 72 73 75 76 79 81 83 85 87 89 91 93 94 95 96 98 99 100 101 102 103 104 106 107 108 109 110 110 110 111 112 114 116 118 121 123 125 127 129 131
21 22 23 24 25 27 29 31 33 35 37 39 40 42 44 45 46 47 48 49 51 51 52 53 54 55 55 56 57 58 59 60 61 62 63 64 65 66 67 68 69 70 70 71 73 75 76 78 80 82 83 84 86 88 90 92 94 96 98 99 100 101 102 103 104 105 106 106 108 109 111 112 114 115 116 117 118 119 120 121 123 125 127 129 131 133 134
25 26 27 28 30 31 33 35 37 39 41 43 44 46 48 49 50 51 52 53 54 55 56 57 57 58 59 60 61 62 63 64 65 66 68 69 70 71 72 73 75 76 76 77 78 80 82 84 87 88 90 91 92 94 95 96 98 99 101 103 104 105 106 107 108 109 110 111 112 113 115 117 119 121 122 123 125 126 126 127 128 129 131 132 134 135 135
Wind_Direction
155 156 160 162 163 163 165 168 172 177 182 184 184 182 181 181 181 182 183 185 187 189 190 192 194 198 202 205 208 210 212 215 217 221 227 234 242 250 255 260 264 268 269 270 273 277 282 287 292 296 301 304 307 310 313 316 319 322 324 327 329 331 334 336 338 339 341 342 343 344 345 346 346 346 347 348 349 350 350 351 351 351 351 352 353 352 352
158 160 163 164 166 168 172 177 181 185 186 185 183 182 182 183 183 185 187 188 189 191 192 195 199 204 208 210 213 215 217 220 223 226 232 239 247 254 259 263 267 271 272 272 274 278 282 287 291 296 300 303 306 309 312 315 317 320 322 324 326 328 331 334 336 338 339 340 342 344 345 345 345 345 346 347 349 350 350 350 350 351 350 350 352 353 352
161 164 166 168 173 177 181 185 186 187 186 185 183 183 184 185 186 188 190 191 192 194 196 200 204 209 213 215 217 220 223 226 228 232 238 244 250 255 260 264 268 272 275 276 277 279 282 286 291 295 299 302 305 308 310 313 315 318 321 323 326 328 330 333 335 337 338 340 342 344 345 345 345 346 346 347 348 349 349 349 350 351 350 350 351 353 352
167 170 173 178 183 186 188 188 187 186 186 185 185 185 186 187 189 191 193 194 196 198 201 205 209 213 216 219 222 225 228 230 234 238 243 249 253 256 260 264 269 273 276 278 279 281 283 287 291 294 298 301 304 306 309 311 314 317 320 323 326 328 329 332 334 336 338 340 341 343 344 345 345 345 345 346 347 348 348 348 349 350 351 350 349 350 351
175 179 184 188 192 192 190 188 186 185 186 186 187 188 189 190 192 194 196 197 199 203 207 211 214 217 220 223 226 229 232 235 239 243 248 252 256 259 263 266 270 274 277 279 281 283 285 288 291 294 297 300 302 305 308 310 313 316 320 323 325 327 328 329 332 335 336 337 339 340 342 343 344 344 344 345 346 347 347 348 348 349 350 350 349 349 350
186 190 193 195 195 193 190 188 186 186 187 189 190 191 192 193 195 198 200 201 204 208 212 216 220 222 224 227 230 233 236 239 243 247 251 255 259 262 266 269 273 276 278 280 282 284 287 289 292 294 297 299 302 304 307 310 313 315 318 321 324 325 327 328 330 332 334 335 337 339 340 341 342 342 343 344 344 345 346 347 347 348 348 349 349 348 348
195 197 198 198 196 193 191 189 189 189 190 192 193 194 195 197 199 201 204 206 209 213 218 221 225 227 229 232 235 237 240 244 247 251 254 257 261 265 268 271 274 277 279 280 282 284 287 289 292 294 297 299 301 304 306 309 311 314 317 320 322 324 325 327 328 330 332 334 335 337 338 339 340 341 342 342 342 343 345 346 346 347 347 348 348 348 348
200 200 199 198 196 194 192 191 192 192 193 194 195 197 199 201 203 205 208 212 215 218 222 226 229 232 234 237 240 242 245 247 250 254 257 260 263 266 270 272 275 277 279 281 282 284 286 289 291 294 296 299 301 303 306 308 311 313 316 318 320 322 324 325 326 328 330 332 333 334 335 337 339 340 340 341 341 342 344 345 345 346 346 347 347 347 347
201 200 199 198 196 195 194 194 195 196 197 197 198 200 203 205 207 209 211 216 220 224 228 231 234 236 239 241 245 247 249 252 254 257 260 263 265 268 271 273 275 277 279 281 282 284 286 288 291 293 296 298 300 303 305 307 310 312 314 316 319 320 322 323 325 326 327 329 330 332 333 335 337 338 338 339 341 341 342 344 344 345 345 346 346 347 347
201 200 200 199 197 196 196 197 198 199 200 201 203 205 207 209 211 213 216 220 225 229 233 236 238 240 243 246 249 251 253 256 258 260 263 266 268 270 272 274 275 277 279 281 283 284 286 287 290 292 295 297 299 302 304 306 308 311 313 315 317 318 320 321 323 324 325 326 328 330 332 333 335 336 337 339 341 341 341 342 343 343 344 345 346 346 346
201 201 201 200 199 199 200 201 202 203 204 206 207 209 212 214 215 218 221 225 229 233 237 240 243 245 248 251 253 255 257 259 261 263 265 267 269 271 273 274 276 277 279 281 283 285 286 288 290 292 294 296 298 300 303 305 307 309 311 313 315 317 318 320 321 322 323 325 327 328 330 331 332 334 337 339 340 340 340 341 342 343 343 344 345 345 345
201 201 202 203 203 204 205 206 207 208 209 211 212 214 217 218 220 223 225 230 234 238 241 245 247 250 253 255 257 260 261 263 265 267 268 270 271 272 273 274 276 277 279 281 283 285 287 288 290 292 293 295 297 299 302 304 306 308 310 312 313 315 317 318 320 321 322 323 325 326 327 329 332 334 336 337 338 340 340 340 341 342 342 343 344 344 343
201 203 204 206 208 209 210 212 213 213 214 216 218 221 223 224 225 227 230 233 238 242 246 249 252 254 256 259 261 263 265 267 268 270 271 272 272 272 272 273 275 277 279 281 283 285 287 288 290 292 293 295 296 299 301 303 305 307 309 311 313 314 316 317 318 320 321 322 323 325 327 329 331 332 333 335 336 338 339 339 339 340 341 342 342 342 342
205 206 208 210 213 215 216 217 218 219 220 222 225 227 230 231 232 233 234 236 240 245 248 252 254 256 258 261 263 265 267 269 271 272 273 274 274 273 273 273 275 277 279 281 283 284 286 288 290 292 293 295 297 299 301 303 305 307 308 310 312 313 315 316 318 319 320 321 322 324 326 327 329 330 331 333 335 337 338 338 339 339 340 340 341 341 342
210 212 213 215 217 219 221 223 224 226 227 229 231 234 236 238 239 240 241 241 243 247 250 253 255 258 260 263 265 268 270 272 274 276 277 277 276 275 275 275 276 278 280 281 283 284 286 288 290 292 293 295 297 299 301 303 304 306 308 309 311 313 314 316 317 318 319 320 321 323 324 325 327 329 331 333 334 335 336 337 338 338 338 339 340 341 341
217 219 220 221 222 224 226 227 229 232 234 236 238 241 243 244 245 246 247 248 248 251 253 255 258 260 262 265 268 271 273 276 278 280 281 281 280 278 277 277 278 279 281 282 284 285 286 288 290 291 293 295 297 299 301 303 304 306 307 309 311 312 314 315 317 318 319 320 321 322 324 325 327 329 331 332 333 334 335 335 336 336 337 338 340 340 340
223 226 227 228 228 230 231 232 234 236 238 240 243 245 247 249 251 252 253 254 254 255 257 259 261 263 265 267 270 272 275 277 280 281 283 283 283 282 281 281 281 282 283 284 285 286 287 288 290 292 294 296 298 300 301 303 305 306 308 309 310 312 314 315 316 317 318 320 321 322 323 325 327 329 330 332 333 333 334 334 335 336 337 338 339 339 339
223 228 232 235 236 237 237 238 239 241 242 244 245 248 250 252 254 255 257 258 259 259 260 262 263 265 267 268 271 273 275 277 279 281 283 284 284 284 284 284 284 285 285 286 287 288 288 289 291 292 294 296 298 300 302 303 305 306 308 309 311 312 314 315 316 317 318 319 320 321 322 324 326 328 330 331 332 333 334 334 335 336 337 338 338 339 339
228 231 236 239 242 244 245 246 247 247 248 249 250 252 254 255 256 257 259 260 261 262 263 264 265 266 267 269 271 272 274 276 278 280 281 283 284 285 285 286 286 286 287 288 289 290 290 291 292 293 295 297 299 300 302 304 305 307 308 309 311 312 313 314 315 316 317 318 319 320 321 323 325 327 330 331 332 334 334 335 335 336 336 337 338 338 338
239 240 242 244 246 249 251 253 254 255 256 257 258 258 260 261 262 263 263 264 265 265 266 266 267 267 268 269 270 272 273 275 276 278 279 281 282 283 285 285 286 286 287 288 289 290 291 292 294 295 296 297 299 300 302 304 305 307 308 309 310 311 313 313 314 315 316 317 318 319 320 323 325 328 331 332 333 334 334 334 334 335 335 336 337 337 337
248 249 250 251 252 253 255 256 258 259 261 263 264 264 266 267 268 269 269 270 270 271 271 271 272 272 272 273 273 273 274 275 276 277 278 279 280 282 283 283 284 286 287 288 289 290 291 292 293 295 296 297 299 300 302 303 304 306 307 309 310 311 312 313 314 315 316 317 318 319 321 324 328 330 331 332 333 333 333 332 333 334 335 335 336 337 337
258 258 258 259 260 261 262 263 264 265 267 268 269 270 271 273 274 274 275 276 276 276 277 277 278 277 277 277 277 277 278 278 278 279 279 280 281 281 282 283 284 285 286 287 288 289 290 292 293 294 296 297 298 300 301 302 304 305 306 308 309 310 312 313 315 315 316 317 319 320 322 326 329 330 331 332 332 331 331 332 333 334 334 335 336 337 338
266 267 267 267 268 268 269 269 270 271 272 273 274 275 276 277 278 278 279 279 279 280 281 281 282 282 281 281 281 281 281 281 281 281 281 282 282 283 284 284 285 286 287 288 289 290 291 292 293 294 296 297 298 299 300 302 303 304 306 307 309 310 311 313 314 315 316 317 318 320 323 326 328 329 330 330 330 330 330 332 333 334 334 335 336 337 337
275 276 276 277 277 277 277 277 277 277 278 278 279 280 281 281 280 280 280 280 280 280 281 281 282 282 282 283 283 283 283 283 283 282 283 283 283 284 285 286 287 288 289 289 290 291 292 293 294 295 296 297 299 300 301 302 304 305 306 307 309 310 311 312 313 314 315 316 318 320 322 324 326 328 328 329 329 329 331 332 333 334 335 335 336 337 337
282 283 283 283 283 283 283 283 283 283 284 285 285 285 284 283 282 281 280 280 280 280 280 280 280 280 281 281 282 283 283 284 284 284 284 284 284 285 285 286 287 287 288 290 291 292 293 294 295 296 297 298 300 300 301 302 304 305 306 307 308 309 310 311 312 313 314 316 318 320 322 324 326 327 327 328 329 330 332 333 334 335 336 336 336 336 336
286 286 286 286 286 286 286 286 287 288 288 287 285 284 283 283 283 284 284 284 284 284 283 283 283 283 283 283 282 282 282 283 283 285 286 287 287 287 287 287 287 288 288 289 290 292 293 294 295 296 298 299 300 301 301 303 304 305 306 307 307 308 309 310 311 312 314 316 318 320 322 324 325 326 327 328 330 332 332 333 334 335 336 336 335 335 335
289 289 289 288 287 287 288 288 289 288 287 285 285 286 287 288 289 289 289 289 288 288 288 287 287 287 287 286 285 285 284 283 283 284 285 286 288 289 290 290 291 291 291 292 292 293 294 295 296 297 298 299 301 301 302 303 304 304 306 306 306 307 308 309 311 313 314 316 318 320 322 323 324 325 327 329 331 332 333 334 335 335 335 335 334 334 334
290 290 290 290 290 290 290 291 290 289 290 290 291 292 292 292 291 291 291 291 291 290 290 290 290 290 289 289 288 288 287 287 285 285 285 285 286 288 290 292 294 295 296 297 298 298 299 300 300 301 302 303 304 304 304 305 305 306 306 307 307 308 309 310 312 314 315 317 320 322 323 324 325 327 329 331 332 333 334 334 334 334 334 334 334 333 334
289 289 290 290 290 290 290 290 290 291 292 292 291 291 290 290 289 290 290 290 290 290 290 290 290 290 290 290 289 289 289 288 288 286 286 285 286 287 289 292 294 296 299 301 302 304 305 306 306 307 307 308 309 308 308 309 309 309 309 310 310 311 311 312 314 315 317 320 323 324 324 326 328 329 331 332 333 333 334 334 334 334 334 333 333 333 334
291 291 291 290 290 290 290 290 290 289 289 289 289 290 289 289 289 289 289 289 289 290 290 290 290 289 289 288 288 288 289 289 289 288 288 287 287 288 289 291 293 296 298 301 303 305 307 308 309 309 309 309 310 309 309 310 311 311 311 311 312 313 314 314 315 318 321 323 325 325 326 328 329 330 331 332 332 333 333 333 334 334 334 334 334 334 334
291 291 291 290 290 290 290 290 289 289 289 289 289 289 289 290 290 290 290 291 291 291 291 291 290 289 289 288 288 287 287 288 289 290 290 290 290 291 291 292 294 296 298 300 303 305 306 307 307 307 307 307 309 309 308 309 311 311 311 313 314 315 315 316 319 322 324 325 327 328 328 329 330 331 331 332 332 332 332 333 333 334 334 334 335 335 335
289 289 289 289 289 289 288 288 288 289 289 290 291 291 291 292 292 292 292 293 293 293 293 292 291 291 290 289 289 289 289 289 290 291 292 293 293 294 295 295 296 297 299 300 302 303 303 304 305 305 306 307 309 309 310 311 312 312 314 316 317 318 319 321 324 325 326 327 329 329 329 329 329 330 331 331 331 331 331 332 333 333 334 335 335 335 335
288 289 289 289 290 290 291 292 294 295 296 297 297 297 298 298 297 297 297 297 297 296 296 295 294 293 292 292 292 292 292 293 293 293 294 296 297 297 298 298 299 299 299 300 301 302 302 303 304 305 307 309 311 312 313 314 316 318 320 321 322 324 325 325 326 327 327 328 329 330 330 329 328 329 329 329 330 330 330 331 332 333 334 334 334 335 335
289 290 291 292 294 296 298 300 302 303 304 305 306 306 306 306 306 306 306 305 305 304 303 302 301 301 300 299 298 298 298 298 297 297 298 298 299 300 300 300 301 300 300 301 302 302 303 305 307 309 312 315 317 318 318 320 323 326 327 327 328 329 328 328 328 329 329 329 329 329 329 328 328 328 328 329 329 329 330 331 332 332 333 333 333 334 334
293 295 297 299 302 305 307 309 311 312 314 315 315 316 316 316 316 316 316 316 315 314 313 313 312 311 310 309 307 305 305 303 302 302 302 302 302 302 302 303 303 302 303 305 307 308 311 313 316 319 323 325 326 327 328 329 331 332 331 330 331 331 330 330 330 330 329 327 327 328 328 328 327 327 328 328 328 329 329 330 331 332 332 332 332 332 332
301 304 307 309 312 314 317 319 323 324 326 328 329 330 331 332 333 333 334 334 333 333 332 331 329 327 325 323 320 318 316 314 312 311 310 310 310 309 309 310 311 313 317 320 322 324 327 328 330 333 335 335 334 336 337 337 336 335 334 332 332 331 330 330 329 328 327 326 326 327 328 328 327 327 328 328 329 329 329 330 330 330 330 330 330 330 330
313 316 319 321 324 328 333 339 343 346 349 352 354 357 359 360 360 0 0 360 360 359 357 356 354 350 348 346 343 341 341 339 337 335 332 331 331 330 329 330 332 334 338 341 341 342 343 343 342 343 343 341 341 341 339 338 336 335 334 332 331 330 329 328 327 328 328 327 326 326 327 328 327 327 328 329 329 328 328 328 328 328 328 328 328 328 328
325 329 333 338 345 354 2 8 14 19 22 24 25 25 25 24 23 22 21 20 19 18 16 14 13 10 8 6 4 3 3 2 0 359 357 355 355 354 352 351 352 352 353 354 353 351 350 349 347 346 343 341 340 339 336 335 334 333 332 331 329 329 328 327 327 327 327 327 326 326 326 327 327 327 327 327 327 327 326 326 326 326 326 326 326 326 326
342 351 0 10 20 29 34 38 40 42 42 41 40 38 37 35 33 31 30 28 27 26 24 22 20 18 16 15 13 11 11 10 9 9 8 6 5 4 2 359 358 357 355 354 352 350 348 345 343 341 339 338 337 336 334 333 332 331 330 330 329 328 328 328 327 327 328 328 327 327 326 326 326 326 325 325 326 325 324 324 324 324 325 324 324 324 325
14 27 38 46 50 53 53 54 53 51 48 45 43 40 37 35 33 31 29 26 25 23 22 20 18 16 14 13 11 9 9 8 7 7 6 4 2 1 359 356 354 351 349 347 345 343 341 339 337 336 335 334 334 333 332 332 331 330 329 329 329 329 329 329 328 327 328 328 327 326 325 325 324 324 324 324 324 324 323 323 323 324 324 324 324 324 324
52 60 65 66 66 65 63 59 55 51 47 42 38 34 30 27 25 23 21 19 18 16 14 13 11 9 8 6 5 3 2 1 360 359 358 356 355 353 351 349 346 344 343 341 339 338 336 335 333 332 331 331 330 330 330 330 330 330 329 329 330 330 330 329 328 327 326 326 326 325 324 323 323 323 323 323 323 323 323 322 323 323 323 323 323 322 322
76 77 77 74 71 66 61 54 48 42 36 31 25 21 18 16 14 13 11 9 8 7 5 4 3 2 0 359 357 356 354 353 352 351 350 349 347 345 344 343 341 340 339 337 335 333 332 331 330 329 328 327 327 327 328 328 329 329 329 328 329 329 329 328 327 326 325 325 325 324 323 322 321 321 321 322 322 322 322 322 322 322 322 321 321 321 321
85 83 77 70 62 53 45 38 30 23 18 13 9 7 5 4 4 3 2 1 0 359 358 357 356 354 353 352 350 349 347 346 344 343 342 342 341 340 339 339 338 337 335 334 332 330 329 328 327 326 326 325 326 327 327 328 328 328 328 327 327 327 327 327 326 325 324 323 323 323 322 321 321 321 320 320 320 320 320 320 320 320 320 320 320 319 319
86 77 65 52 41 30 22 14 8 3 0 358 356 355 354 354 354 354 354 353 353 352 351 350 349 347 346 344 343 342 341 339 338 338 337 337 336 336 335 335 334 333 332 331 329 328 327 326 326 325 324 324 325 325 326 326 326 326 326 325 324 324 324 324 323 322 322 321 321 321 320 320 319 319 318 317 317 317 317 317 317 317 317 318 318 318 318
69 50 35 22 13 6 360 355 352 350 349 348 347 346 345 345 345 345 345 345 345 344 344 343 342 341 340 339 338 337 336 334 333 333 333 332 332 332 331 330 329 329 328 328 327 326 325 324 323 322 321 322 322 323 323 323 323 322 322 322 321 321 321 320 319 319 318 318 318 317 317 316 316 316 315 315 314 314 314 314 314 315 315 316 316 316 316
22 9 1 355 351 348 346 345 343 341 340 340 339 338 337 337 337 337 337 338 338 338 338 337 336 336 336 335 334 333 332 330 328 328 328 329 328 328 327 325 325 324 325 325 324 323 322 321 319 318 318 318 318 319 319 319 319 319 318 318 318 317 317 316 316 315 315 315 315 314 314 313 313 313 313 312 312 311 312 312 312 313 314 314 315 315 315
346 341 337 335 333 333 334 335 334 333 331 331 331 331 330 331 331 331 332 333 333 333 333 333 332 332 332 332 330 329 328 327 325 324 325 326 326 324 322 321 320 321 321 321 321 319 318 317 316 315 314 314 315 315 316 316 315 315 315 315 315 314 314 313 313 313 312 312 312 312 312 312 311 311 311 311 311 311 311 311 311 312 313 313 313 313 313
321 321 320 320 321 323 325 327 327 326 325 325 325 325 326 326 326 327 327 328 329 329 329 329 329 329 328 328 327 325 325 324 322 321 322 323 322 321 319 318 318 318 318 318 317 316 315 314 313 312 312 312 312 312 313 312 312 312 312 312 312 311 311 311 311 310 310 310 310 310 310 310 310 310 310 310 310 310 310 310 310 311 311 311 311 311 312
308 310 311 313 315 317 319 321 322 322 321 321 321 322 322 322 322 323 323 324 325 325 325 325 325 325 324 324 323 322 321 321 320 319 319 319 319 318 317 316 316 316 316 316 315 313 312 312 311 310 310 310 310 310 311 310 310 310 310 310 310 310 310 310 309 309 309 309 309 309 309 309 309 309 309 309 309 309 309 309 309 309 310 310 310 310 311
304 306 308 310 312 313 315 316 317 318 318 318 318 318 318 318 319 319 320 321 321 322 322 322 322 321 321 320 320 320 320 319 318 317 317 317 316 316 315 314 314 314 314 314 313 312 311 310 310 310 310 310 310 310 310 310 309 309 309 309 309 309 309 309 309 309 308 308 308 308 308 308 308 308 308 308 308 308 308 308 308 309 309 309 309 309 310
302 305 307 308 310 311 312 313 313 314 315 315 315 315 315 316 316 317 318 318 318 319 319 318 318 318 318 317 317 317 317 317 316 315 315 315 315 314 314 313 313 313 313 313 313 312 311 311 310 310 310 309 309 309 309 309 309 309 309 309 309 309 308 308 308 308 307 307 307 307 307 307 307 307 307 307 307 307 308 308 308 308 308 308 308 308 308
301 304 306 307 308 309 309 310 311 312 312 312 313 313 313 314 314 315 315 316 316 316 316 315 315 315 315 315 315 315 316 315 315 314 314 314 313 313 313 313 313 313 313 313 312 312 311 311 310 310 310 310 309 309 309 309 309 309 309 308 308 308 308 307 307 307 306 306 306 306 306 306 306 306 306 307 307 307 307 307 307 307 307 306 306 306 307
Height
10662 10663 10664 10665 10666 10666 10667 10668 10669 10670 10671 10671 10672 10674 10675 10676 10677 10679 10680 10681 10682 10684 10684 10685 10686 10686 10687 10688 10688 10689 10689 10689 10689 10688 10688 10687 10686 10686 10685 10684 10683 10682 10680 10678 10677 10675 10673 10671 10669 10666 10664 10661 10659 10655 10652 10649 10645 10641 10637 10633 10629 10626 10622 10618 10613 10607 10601 10596 10590 10584 10577 10571 10564 10555 10548 10540 10532 10523 10513 10505 10497 10486 10477 10474 10466 10452 10441
10663 10664 10664 10665 10666 10667 10667 10668 10669 10670 10671 10672 10672 10674 10675 10676 10678 10679 10680 10681 10682 10683 10684 10685 10685 10686 10687 10687 10688 10688 10688 10688 10687 10687 10686 10686 10685 10684 10683 10682 10681 10680 10678 10676 10675 10673 10671 10669 10666 10664 10661 10659 10656 10653 10649 10646 10642 10638 10634 10630 10627 10623 10619 10616 10611 10607 10601 10596 10590 10584 10576 10568 10561 10553 10545 10536 10528 10520 10512 10504 10497 10488 10476 10469 10465 10454 10439
10663 10664 10665 10665 10666 10667 10668 10668 10669 10670 10671 10672 10673 10674 10675 10677 10678 10679 10680 10681 10682 10683 10683 10684 10685 10686 10686 10687 10687 10687 10687 10687 10686 10686 10685 10684 10683 10682 10681 10680 10679 10677 10676 10674 10672 10670 10668 10666 10664 10661 10659 10656 10653 10650 10647 10643 10639 10636 10631 10627 10623 10618 10614 10610 10606 10601 10595 10590 10583 10577 10570 10562 10555 10547 10539 10532 10524 10516 10509 10501 10494 10486 10474 10461 10456 10453 10443
10664 10664 10665 10666 10666 10667 10668 10668 10669 10670 10671 10672 10673 10674 10676 10677 10678 10679 10680 10681 10682 10682 10683 10683 10684 10685 10685 10686 10686 10686 10686 10685 10685 10684 10683 10682 10681 10680 10679 10678 10677 10675 10674 10672 10670 10668 10666 10664 10661 10659 10656 10653 10650 10647 10644 10640 10637 10633 10629 10624 10619 10614 10608 10604 10600 10594 10588 10582 10576 10570 10564 10557 10549 10542 10535 10528 10521 10514 10506 10498 10489 10482 10474 10463 10452 10449 10444
10664 10664 10665 10666 10666 10667 10668 10668 10669 10670 10671 10672 10673 10674 10676 10677 10678 10679 10680 10681 10681 10682 10682 10683 10683 10684 10684 10684 10684 10684 10684 10684 10683 10682 10681 10680 10679 10678 10677 10676 10674 10673 10671 10669 10668 10665 10663 10661 10658 10656 10653 10651 10648 10645 10641 10638 10634 10630 10626 10621 10616 10611 10606 10600 10596 10591 10585 10579 10573 10567 10561 10555 10547 10540 10532 10524 10518 10512 10504 10495 10486 10478 10473 10466 10453 10442 10437
10664 10664 10665 10666 10666 10667 10667 10668 10669 10670 10671 10672 10673 10674 10675 10677 10678 10679 10679 10680 10681 10681 10682 10682 10682 10683 10683 10683 10683 10683 10682 10682 10681 10680 10679 10678 10677 10676 10675 10673 10672 10670 10669 10667 10665 10663 10660 10658 10655 10653 10651 10648 10645 10642 10638 10635 10631 10627 10623 10619 10614 10609 10604 10597 10591 10587 10582 10576 10571 10564 10557 10551 10545 10537 10530 10522 10515 10510 10503 10494 10486 10477 10469 10463 10455 10443 10434
10664 10664 10665 10665 10666 10667 10667 10668 10669 10670 10671 10672 10673 10674 10675 10676 10677 10678 10679 10680 10680 10681 10681 10681 10682 10682 10682 10681 10681 10681 10680 10680 10679 10678 10677 10676 10675 10674 10673 10671 10669 10668 10666 10664 10662 10660 10658 10655 10653 10650 10648 10645 10642 10639 10636 10632 10629 10625 10620 10616 10612 10607 10602 10596 10589 10584 10579 10573 10567 10562 10555 10549 10543 10536 10528 10520 10513 10507 10502 10494 10486 10478 10468 10460 10454 10444 10433
10664 10664 10665 10665 10666 10666 10667 10668 10669 10670 10671 10672 10673 10674 10675 10676 10677 10677 10678 10679 10679 10680 10680 10680 10680 10680 10680 10680 10679 10679 10678 10677 10677 10676 10675 10674 10673 10671 10670 10668 10667 10665 10663 10662 10660 10657 10655 10653 10650 10647 10645 10642 10639 10636 10633 10629 10625 10622 10618 10613 10609 10605 10600 10595 10589 10582 10577 10571 10565 10560 10554 10548 10541 10534 10527 10520 10511 10503 10498 10491 10483 10476 10467 10457 10450 10442 10433
10663 10664 10664 10665 10665 10666 10667 10668 10668 10670 10671 10671 10672 10673 10674 10675 10676 10676 10677 10678 10678 10679 10679 10679 10679 10679 10678 10678 10677 10677 10676 10675 10675 10674 10673 10672 10670 10669 10667 10666 10664 10662 10660 10659 10657 10654 10652 10650 10647 10644 10642 10639 10636 10633 10629 10626 10622 10618 10615 10610 10606 10602 10598 10593 10587 10581 10576 10571 10565 10559 10553 10546 10539 10533 10526 10519 10509 10498 10492 10488 10480 10472 10466 10457 10448 10439 10430
10663 10664 10664 10665 10665 10666 10666 10667 10668 10669 10670 10671 10672 10672 10673 10674 10675 10675 10676 10676 10677 10677 10677 10677 10677 10677 10676 10676 10675 10675 10674 10673 10672 10671 10670 10669 10667 10666 10664 10663 10661 10659 10657 10655 10653 10651 10649 10646 10644 10641 10638 10635 10632 10630 10626 10623 10619 10615 10611 10607 10603 10599 10595 10590 10585 10579 10573 10567 10562 10555 10549 10544 10538 10532 10525 10517 10508 10496 10488 10484 10477 10469 10461 10453 10444 10435 10426
10663 10663 10664 10664 10665 10666 10666 10667 10668 10669 10670 10670 10671 10672 10672 10673 10673 10674 10674 10675 10675 10675 10675 10675 10675 10675 10674 10674 10673 10672 10672 10671 10670 10669 10668 10666 10665 10663 10661 10660 10658 10656 10654 10652 10650 10648 10645 10643 10640 10638 10635 10632 10629 10626 10623 10619 10615 10612 10608 10604 10599 10595 10591 10586 10582 10577 10571 10564 10558 10552 10546 10540 10535 10528 10521 10514 10507 10497 10485 10477 10471 10463 10454 10446 10439 10432 10424
10663 10663 10664 10664 10665 10665 10666 10667 10668 10668 10669 10669 10670 10671 10671 10672 10672 10672 10673 10673 10673 10673 10673 10673 10673 10673 10672 10671 10671 10670 10669 10668 10667 10666 10665 10663 10662 10660 10658 10656 10655 10653 10651 10649 10646 10644 10642 10639 10637 10634 10631 10628 10625 10622 10619 10616 10612 10608 10604 10600 10596 10591 10587 10582 10578 10573 10568 10562 10556 10550 10544 10538 10531 10525 10518 10512 10507 10500 10488 10476 10469 10462 10453 10445 10437 10429 10422
10663 10663 10663 10664 10664 10665 10666 10666 10667 10668 10668 10669 10669 10670 10670 10670 10671 10671 10671 10671 10671 10672 10671 10671 10671 10671 10670 10669 10668 10667 10666 10665 10664 10663 10662 10660 10658 10657 10655 10653 10651 10649 10647 10645 10643 10641 10638 10635 10633 10630 10627 10625 10622 10618 10615 10612 10608 10604 10599 10596 10592 10587 10583 10579 10574 10569 10565 10559 10553 10547 10540 10533 10527 10521 10516 10511 10505 10500 10491 10480 10470 10463 10454 10445 10436 10427 10419
10662 10662 10663 10663 10664 10665 10665 10666 10666 10667 10667 10668 10668 10669 10669 10669 10669 10669 10669 10670 10669 10669 10669 10669 10669 10668 10667 10666 10665 10665 10663 10662 10661 10660 10658 10657 10655 10653 10651 10650 10648 10646 10644 10642 10639 10637 10635 10632 10629 10626 10624 10621 10618 10614 10611 10608 10604 10600 10595 10591 10587 10583 10578 10575 10570 10565 10561 10556 10550 10544 10538 10532 10526 10520 10514 10508 10501 10496 10490 10480 10470 10460 10451 10443 10435 10426 10416
10662 10662 10663 10663 10664 10664 10665 10665 10666 10666 10666 10667 10667 10667 10667 10668 10668 10668 10668 10668 10667 10667 10667 10667 10666 10665 10665 10664 10663 10662 10660 10659 10658 10657 10655 10653 10651 10650 10648 10646 10644 10642 10640 10638 10636 10633 10631 10628 10626 10623 10619 10617 10614 10611 10607 10604 10600 10596 10591 10586 10582 10578 10573 10569 10565 10560 10555 10550 10545 10541 10537 10531 10524 10518 10511 10504 10498 10491 10485 10478 10470 10461 10452 10443 10434 10424 10414
10662 10662 10662 10663 10663 10664 10664 10664 10665 10665 10665 10665 10665 10666 10665 10666 10666 10665 10665 10665 10665 10665 10664 10664 10663 10662 10661 10660 10659 10658 10657 10656 10655 10653 10652 10650 10648 10646 10645 10643 10641 10639 10637 10634 10632 10630 10627 10624 10622 10619 10616 10613 10610 10607 10603 10600 10596 10592 10587 10582 10578 10574 10568 10563 10559 10554 10548 10543 10537 10532 10529 10524 10518 10512 10506 10500 10493 10487 10482 10476 10469 10460 10451 10441 10431 10422 10412
10661 10662 10662 10662 10662 10663 10663 10663 10663 10663 10663 10663 10663 10663 10663 10663 10663 10663 10663 10662 10662 10662 10661 10660 10660 10659 10658 10657 10656 10655 10654 10652 10651 10650 10648 10646 10645 10643 10641 10639 10637 10635 10633 10631 10628 10625 10623 10620 10618 10615 10611 10608 10606 10602 10599 10596 10592 10588 10584 10578 10573 10569 10564 10558 10554 10549 10543 10538 10533 10525 10520 10516 10511 10505 10500 10494 10488 10481 10475 10469 10463 10455 10446 10435 10426 10418 10409
10661 10661 10661 10661 10661 10661 10661 10661 10661 10661 10661 10661 10661 10661 10660 10660 10660 10660 10660 10659 10659 10658 10658 10657 10656 10655 10654 10653 10652 10651 10650 10648 10647 10645 10644 10642 10641 10639 10637 10635 10633 10631 10629 10626 10624 10621 10619 10616 10614 10611 10608 10604 10601 10598 10594 10591 10587 10583 10579 10574 10569 10565 10560 10554 10549 10544 10538 10533 10529 10523 10515 10510 10505 10500 10495 10489 10484 10476 10468 10460 10452 10445 10438 10430 10421 10413 10405
10660 10660 10660 10660 10660 10660 10660 10660 10659 10659 10659 10658 10658 10658 10657 10657 10657 10656 10656 10656 10655 10655 10654 10653 10652 10651 10650 10649 10648 10647 10645 10644 10643 10641 10640 10638 10636 10635 10633 10631 10629 10627 10624 10622 10620 10617 10614 10611 10609 10607 10604 10600 10597 10594 10589 10586 10582 10578 10574 10570 10565 10561 10557 10550 10544 10539 10534 10528 10524 10520 10514 10508 10502 10498 10492 10484 10477 10471 10463 10454 10446 10437 10430 10424 10416 10408 10400
10659 10659 10659 10659 10659 10658 10658 10658 10657 10657 10656 10656 10655 10655 10654 10654 10653 10653 10652 10652 10651 10650 10650 10649 10648 10647 10646 10645 10644 10642 10641 10640 10638 10637 10635 10634 10632 10630 10628 10626 10624 10622 10620 10618 10615 10613 10610 10607 10604 10602 10599 10596 10592 10589 10585 10581 10576 10572 10569 10565 10559 10555 10552 10546 10539 10534 10529 10523 10517 10513 10510 10505 10498 10492 10487 10480 10471 10464 10457 10450 10442 10435 10426 10419 10412 10404 10396
10658 10658 10657 10657 10657 10656 10656 10655 10655 10654 10654 10653 10653 10652 10651 10651 10650 10650 10649 10648 10648 10646 10645 10645 10644 10643 10642 10640 10639 10638 10636 10635 10633 10632 10631 10629 10627 10625 10623 10621 10619 10617 10615 10613 10610 10608 10606 10603 10600 10597 10594 10591 10588 10584 10581 10577 10572 10566 10563 10560 10555 10549 10545 10541 10534 10528 10522 10517 10511 10505 10500 10498 10493 10485 10478 10473 10466 10460 10454 10447 10440 10432 10424 10416 10409 10401 10393
10656 10656 10655 10655 10654 10654 10653 10653 10652 10652 10651 10650 10650 10649 10648 10648 10647 10646 10645 10644 10644 10642 10641 10640 10640 10638 10637 10635 10634 10633 10631 10630 10628 10627 10625 10623 10621 10620 10618 10616 10614 10612 10610 10608 10605 10603 10600 10598 10595 10592 10589 10586 10583 10579 10575 10572 10569 10563 10558 10554 10550 10545 10540 10535 10529 10522 10515 10509 10504 10498 10492 10490 10488 10481 10474 10468 10461 10455 10449 10442 10435 10428 10420 10412 10405 10397 10390
10654 10653 10653 10653 10652 10652 10651 10650 10650 10649 10648 10648 10647 10646 10645 10645 10644 10643 10642 10641 10640 10639 10637 10636 10635 10633 10632 10630 10629 10628 10626 10625 10623 10621 10620 10618 10616 10614 10613 10611 10609 10606 10604 10602 10600 10597 10595 10592 10589 10587 10583 10580 10577 10574 10569 10566 10563 10559 10554 10550 10545 10540 10536 10531 10525 10519 10512 10504 10498 10493 10487 10483 10481 10477 10470 10464 10457 10450 10444 10437 10430 10423 10415 10407 10400 10393 10386
10652 10651 10651 10650 10649 10649 10648 10647 10647 10646 10645 10645 10644 10643 10642 10641 10640 10639 10638 10637 10636 10634 10633 10632 10630 10629 10627 10625 10624 10622 10621 10619 10618 10616 10614 10613 10611 10609 10607 10605 10603 10601 10599 10596 10594 10592 10589 10586 10583 10581 10578 10574 10571 10568 10564 10560 10557 10553 10549 10545 10540 10535 10531 10526 10520 10514 10509 10503 10497 10491 10485 10479 10476 10472 10466 10460 10453 10446 10440 10433 10426 10419 10412 10404 10396 10390 10382
10650 10649 10648 10647 10647 10646 10645 10645 10644 10643 10642 10641 10640 10639 10638 10637 10635 10634 10633 10632 10631 10629 10628 10627 10625 10623 10622 10620 10619 10617 10615 10614 10612 10610 10609 10607 10605 10603 10602 10600 10598 10596 10593 10591 10588 10586 10584 10581 10578 10575 10572 10569 10566 10562 10558 10555 10552 10547 10543 10540 10536 10530 10526 10522 10517 10509 10503 10499 10495 10489 10482 10475 10470 10465 10460 10455 10449 10442 10435 10429 10422 10415 10409 10401 10393 10386 10379
10647 10646 10646 10645 10644 10643 10642 10642 10641 10640 10639 10638 10636 10635 10634 10632 10631 10630 10629 10627 10626 10625 10623 10622 10620 10618 10617 10615 10613 10612 10610 10608 10607 10605 10603 10602 10600 10598 10596 10594 10592 10590 10588 10585 10583 10581 10578 10575 10572 10570 10567 10564 10560 10556 10551 10548 10545 10541 10538 10533 10529 10524 10520 10516 10512 10506 10499 10494 10491 10487 10481 10474 10467 10461 10456 10450 10445 10439 10432 10426 10419 10412 10405 10398 10390 10382 10375
10644 10643 10643 10642 10641 10640 10639 10638 10637 10636 10635 10634 10633 10631 10630 10629 10628 10626 10625 10623 10622 10621 10619 10617 10615 10614 10612 10610 10608 10607 10605 10603 10602 10600 10598 10597 10595 10593 10591 10589 10587 10585 10582 10580 10577 10575 10573 10570 10567 10564 10561 10559 10555 10550 10546 10542 10538 10535 10532 10528 10522 10517 10513 10509 10506 10502 10495 10489 10485 10482 10478 10472 10465 10459 10454 10448 10442 10436 10429 10422 10415 10408 10401 10394 10387 10380 10372
10641 10640 10639 10639 10638 10637 10636 10635 10634 10633 10632 10630 10629 10628 10627 10626 10624 10623 10621 10620 10618 10616 10615 10613 10611 10609 10608 10606 10604 10602 10600 10599 10597 10595 10593 10592 10590 10588 10586 10584 10582 10580 10578 10576 10573 10570 10568 10565 10562 10559 10556 10553 10550 10544 10539 10537 10532 10528 10526 10521 10516 10511 10507 10503 10500 10496 10489 10484 10479 10474 10470 10466 10460 10454 10449 10443 10437 10431 10425 10418 10411 10404 10397 10390 10383 10376 10370
10639 10638 10637 10636 10635 10634 10633 10632 10631 10630 10629 10628 10626 10625 10624 10622 10621 10619 10617 10616 10614 10612 10611 10609 10607 10605 10603 10601 10599 10598 10596 10594 10592 10590 10588 10587 10585 10584 10582 10580 10578 10575 10573 10571 10568 10565 10563 10560 10557 10554 10551 10548 10545 10540 10534 10531 10527 10522 10519 10516 10510 10505 10501 10496 10493 10490 10485 10479 10474 10467 10462 10459 10454 10449 10443 10438 10432 10426 10420 10413 10407 10400 10393 10386 10378 10370 10363
10637 10636 10635 10634 10633 10632 10631 10630 10629 10628 10626 10625 10623 10622 10620 10619 10617 10615 10613 10612 10610 10608 10606 10604 10602 10600 10598 10596 10595 10593 10591 10589 10587 10585 10584 10582 10580 10579 10577 10575 10573 10571 10568 10566 10564 10561 10558 10555 10551 10548 10545 10543 10540 10536 10530 10527 10523 10517 10513 10510 10506 10501 10495 10490 10487 10485 10481 10476 10470 10463 10457 10453 10449 10444 10438 10433 10427 10421 10415 10409 10402 10395 10388 10381 10373 10365 10357
10635 10634 10633 10632 10631 10630 10629 10628 10626 10625 10623 10622 10620 10618 10617 10615 10613 10611 10609 10607 10605 10603 10601 10599 10597 10595 10593 10591 10589 10588 10586 10584 10582 10581 10579 10577 10576 10574 10572 10570 10568 10566 10564 10562 10559 10556 10553 10550 10547 10543 10540 10537 10535 10530 10526 10523 10519 10513 10508 10505 10501 10496 10491 10486 10482 10479 10476 10472 10468 10462 10454 10448 10444 10440 10435 10428 10422 10416 10410 10403 10397 10390 10382 10375 10368 10360 10352
10632 10631 10630 10629 10628 10627 10626 10625 10623 10622 10620 10618 10617 10615 10613 10611 10608 10606 10604 10602 10600 10598 10596 10594 10592 10590 10588 10586 10584 10583 10581 10580 10578 10576 10575 10573 10571 10570 10568 10566 10564 10562 10560 10557 10555 10552 10548 10545 10542 10538 10534 10532 10529 10525 10520 10517 10514 10509 10504 10501 10497 10492 10487 10482 10478 10473 10469 10466 10464 10460 10453 10446 10440 10435 10430 10424 10418 10411 10405 10399 10392 10384 10377 10369 10362 10354 10346
10630 10628 10627 10626 10625 10624 10622 10621 10619 10618 10616 10614 10612 10610 10608 10606 10604 10602 10600 10598 10595 10593 10591 10589 10587 10585 10583 10581 10580 10578 10577 10575 10574 10572 10571 10569 10567 10565 10564 10561 10559 10557 10554 10552 10550 10547 10543 10540 10537 10533 10529 10527 10524 10520 10515 10511 10508 10505 10501 10496 10492 10488 10483 10478 10474 10469 10465 10461 10457 10454 10450 10444 10437 10431 10426 10420 10413 10406 10400 10393 10387 10379 10372 10364 10357 10349 10342
10627 10626 10624 10623 10622 10620 10619 10618 10616 10614 10613 10611 10609 10607 10605 10603 10600 10598 10596 10594 10592 10589 10587 10585 10583 10581 10579 10577 10576 10574 10572 10571 10570 10568 10566 10565 10563 10560 10558 10557 10554 10552 10549 10547 10545 10542 10538 10535 10532 10528 10525 10523 10519 10515 10511 10507 10503 10500 10497 10492 10488 10485 10480 10475 10470 10466 10461 10456 10452 10448 10444 10439 10433 10427 10420 10414 10408 10401 10394 10387 10380 10374 10366 10359 10352 10345 10337
10624 10623 10622 10620 10619 10618 10616 10615 10613 10612 10610 10608 10606 10604 10602 10600 10598 10595 10593 10591 10589 10586 10584 10582 10580 10577 10576 10574 10572 10570 10568 10567 10565 10564 10562 10560 10558 10556 10554 10552 10549 10547 10545 10543 10540 10537 10534 10531 10528 10525 10522 10519 10515 10512 10508 10504 10499 10496 10492 10489 10485 10481 10477 10473 10468 10463 10457 10452 10448 10444 10439 10433 10427 10421 10414 10408 10401 10394 10387 10380 10373 10367 10360 10353 10347 10340 10333
10622 10620 10619 10618 10617 10616 10614 10613 10611 10610 10608 10606 10604 10602 10600 10598 10595 10593 10591 10588 10586 10584 10582 10579 10577 10575 10573 10571 10569 10567 10565 10564 10562 10560 10558 10556 10555 10553 10550 10548 10546 10544 10542 10540 10537 10534 10531 10528 10525 10522 10519 10515 10511 10508 10505 10501 10497 10493 10489 10484 10481 10477 10474 10470 10466 10461 10455 10448 10442 10438 10434 10428 10420 10413 10408 10401 10394 10386 10379 10372 10366 10361 10354 10348 10342 10336 10329
10620 10619 10618 10616 10615 10614 10613 10611 10610 10608 10606 10605 10603 10601 10599 10596 10594 10592 10590 10587 10585 10583 10580 10578 10576 10574 10571 10569 10567 10565 10564 10562 10560 10558 10556 10555 10553 10551 10548 10546 10544 10541 10539 10537 10534 10531 10528 10525 10521 10518 10515 10512 10508 10505 10501 10498 10494 10491 10486 10482 10477 10472 10468 10464 10460 10457 10452 10444 10437 10431 10427 10422 10414 10406 10399 10394 10387 10379 10373 10367 10360 10355 10349 10342 10336 10330 10324
10618 10617 10616 10615 10614 10613 10612 10610 10609 10607 10606 10604 10602 10600 10598 10596 10594 10592 10589 10587 10585 10583 10580 10578 10576 10574 10571 10569 10567 10565 10563 10561 10559 10557 10555 10553 10551 10549 10547 10544 10542 10539 10537 10534 10531 10528 10525 10522 10519 10515 10512 10508 10505 10501 10497 10494 10490 10487 10483 10479 10474 10469 10464 10459 10454 10450 10446 10441 10433 10424 10418 10414 10410 10402 10394 10389 10382 10375 10368 10361 10355 10349 10343 10336 10329 10323 10317
10617 10616 10616 10615 10613 10612 10611 10610 10609 10607 10606 10604 10602 10600 10598 10596 10594 10592 10590 10588 10585 10583 10581 10579 10577 10575 10572 10570 10568 10565 10563 10561 10559 10557 10555 10553 10551 10548 10546 10543 10540 10538 10535 10532 10530 10527 10523 10520 10516 10513 10509 10505 10501 10497 10493 10489 10485 10481 10478 10475 10470 10465 10460 10454 10447 10442 10438 10433 10426 10418 10410 10404 10401 10396 10390 10384 10379 10371 10363 10355 10349 10343 10336 10329 10322 10315 10309
10616 10616 10615 10614 10613 10612 10611 10610 10608 10607 10605 10604 10602 10600 10598 10596 10594 10592 10590 10588 10586 10584 10582 10580 10578 10576 10573 10571 10569 10566 10564 10562 10560 10558 10556 10553 10551 10548 10546 10543 10540 10537 10534 10531 10528 10525 10521 10517 10514 10510 10507 10503 10499 10495 10491 10486 10482 10477 10473 10469 10465 10460 10455 10448 10441 10435 10431 10426 10420 10413 10405 10397 10392 10387 10381 10376 10370 10364 10357 10349 10342 10335 10328 10321 10314 10306 10300
10616 10615 10614 10614 10613 10612 10611 10609 10608 10607 10605 10603 10602 10600 10598 10597 10595 10593 10591 10589 10587 10585 10583 10581 10579 10577 10574 10572 10570 10567 10565 10562 10560 10558 10555 10553 10550 10548 10545 10542 10539 10536 10532 10529 10525 10522 10519 10515 10510 10507 10504 10500 10497 10493 10489 10484 10479 10473 10467 10463 10459 10455 10449 10443 10436 10429 10424 10421 10416 10409 10401 10394 10386 10379 10373 10367 10361 10354 10347 10340 10334 10328 10320 10313 10306 10298 10291
10615 10615 10614 10614 10613 10612 10610 10609 10608 10606 10605 10603 10602 10600 10598 10597 10595 10593 10591 10589 10587 10585 10583 10581 10579 10577 10574 10572 10569 10567 10564 10562 10559 10557 10554 10551 10549 10545 10542 10540 10536 10533 10529 10526 10522 10519 10516 10512 10508 10503 10499 10495 10492 10489 10485 10480 10475 10469 10462 10456 10452 10448 10443 10438 10432 10424 10417 10412 10409 10403 10396 10389 10381 10373 10366 10359 10353 10346 10338 10330 10325 10319 10312 10304 10297 10289 10282
10615 10615 10614 10613 10612 10611 10610 10609 10607 10606 10604 10603 10601 10600 10598 10596 10595 10593 10591 10589 10587 10585 10583 10581 10578 10576 10573 10571 10568 10566 10563 10560 10558 10555 10552 10550 10547 10544 10540 10537 10533 10530 10526 10522 10518 10515 10511 10508 10505 10501 10496 10491 10486 10482 10478 10473 10469 10464 10457 10450 10444 10440 10436 10431 10425 10419 10412 10405 10400 10395 10389 10383 10376 10368 10359 10351 10344 10338 10330 10322 10315 10309 10302 10295 10287 10279 10272
10615 10614 10614 10613 10612 10610 10609 10608 10606 10605 10603 10602 10600 10599 10597 10596 10594 10592 10591 10589 10587 10585 10583 10580 10578 10575 10573 10570 10567 10564 10561 10558 10555 10553 10550 10546 10544 10541 10538 10535 10531 10528 10523 10518 10514 10509 10505 10502 10499 10495 10490 10486 10481 10475 10471 10466 10462 10458 10453 10446 10439 10433 10429 10424 10418 10413 10407 10400 10394 10387 10381 10375 10369 10362 10353 10344 10335 10329 10322 10315 10307 10300 10293 10286 10278 10270 10262
10614 10614 10613 10612 10611 10609 10608 10607 10605 10604 10602 10601 10599 10597 10595 10594 10592 10591 10589 10587 10585 10584 10581 10579 10577 10575 10572 10569 10566 10563 10560 10556 10553 10551 10548 10544 10540 10537 10534 10531 10529 10525 10521 10516 10511 10506 10501 10496 10492 10488 10484 10480 10476 10470 10465 10460 10455 10451 10448 10443 10436 10429 10423 10417 10412 10406 10401 10395 10389 10382 10375 10369 10363 10356 10349 10339 10329 10320 10313 10306 10299 10291 10285 10278 10269 10260 10252
10614 10613 10612 10611 10610 10608 10607 10606 10604 10602 10601 10599 10597 10595 10593 10591 10590 10588 10586 10585 10583 10581 10579 10576 10574 10572 10569 10566 10563 10560 10557 10554 10550 10547 10545 10542 10538 10534 10530 10527 10524 10521 10518 10514 10508 10503 10498 10493 10488 10483 10478 10474 10470 10465 10459 10454 10449 10443 10439 10436 10431 10425 10418 10411 10404 10398 10392 10387 10381 10374 10368 10361 10354 10348 10342 10334 10324 10312 10303 10296 10288 10280 10273 10267 10258 10249 10241
10613 10612 10611 10609 10608 10607 10606 10604 10603 10601 10599 10597 10595 10593 10591 10589 10587 10585 10583 10582 10580 10577 10575 10573 10570 10568 10565 10562 10559 10556 10553 10550 10546 10542 10540 10538 10535 10531 10526 10522 10518 10515 10513 10510 10505 10500 10494 10489 10484 10479 10474 10469 10464 10460 10454 10448 10443 10437 10431 10427 10423 10417 10410 10403 10396 10389 10382 10376 10370 10364 10357 10351 10344 10338 10332 10326 10317 10305 10294 10286 10278 10269 10262 10255 10247 10238 10229
10611 10610 10609 10607 10606 10605 10604 10602 10601 10599 10597 10594 10592 10590 10587 10585 10583 10581 10579 10578 10576 10573 10571 10568 10566 10563 10560 10557 10554 10551 10547 10544 10540 10536 10533 10532 10529 10526 10521 10517 10513 10509 10506 10504 10500 10495 10490 10484 10478 10473 10467 10462 10457 10453 10448 10442 10436 10429 10424 10419 10414 10408 10402 10395 10388 10380 10372 10365 10359 10352 10345 10337 10331 10325 10319 10314 10307 10297 10285 10275 10268 10260 10251 10243 10235 10226 10218
10609 10608 10607 10605 10604 10602 10601 10600 10598 10596 10594 10591 10589 10586 10584 10582 10580 10577 10575 10573 10571 10569 10566 10563 10561 10558 10555 10551 10548 10545 10541 10538 10534 10530 10527 10524 10521 10518 10515 10511 10507 10503 10500 10496 10492 10488 10483 10478 10472 10467 10461 10455 10449 10444 10439 10433 10426 10419 10413 10408 10402 10396 10389 10383 10376 10369 10361 10352 10345 10338 10331 10323 10316 10311 10305 10299 10294 10286 10276 10265 10256 10249 10241 10231 10222 10213 10205
10607 10606 10605 10603 10602 10600 10598 10597 10595 10593 10591 10588 10585 10582 10580 10577 10575 10573 10571 10569 10566 10564 10561 10558 10555 10552 10549 10545 10541 10538 10535 10531 10527 10523 10520 10516 10513 10510 10507 10503 10499 10496 10493 10489 10484 10479 10474 10468 10463 10458 10453 10446 10439 10433 10428 10422 10415 10408 10401 10395 10389 10382 10375 10368 10361 10355 10348 10340 10331 10323 10316 10309 10301 10295 10289 10284 10277 10271 10264 10255 10244 10236 10229 10220 10208 10199 10191
10605 10603 10602 10600 10599 10597 10595 10594 10591 10589 10587 10584 10581 10578 10575 10572 10570 10568 10566 10563 10561 10558 10555 10552 10549 10546 10543 10539 10535 10532 10529 10525 10521 10516 10512 10509 10505 10502 10498 10494 10490 10487 10484 10480 10474 10468 10463 10457 10451 10446 10442 10437 10431 10424 10418 10411 10404 10395 10387 10381 10375 10369 10362 10354 10347 10339 10332 10326 10317 10308 10300 10293 10285 10277 10272 10266 10258 10252 10248 10241 10230 10220 10213 10204 10194 10184 10176
10601 10600 10599 10597 10595 10593 10591 10589 10587 10585 10582 10579 10576 10573 10570 10567 10564 10562 10559 10557 10554 10551 10548 10545 10542 10539 10536 10532 10529 10526 10523 10519 10514 10509 10505 10500 10496 10493 10489 10485 10480 10477 10474 10471 10465 10459 10452 10445 10438 10432 10427 10422 10417 10412 10406 10400 10393 10384 10375 10366 10359 10352 10346 10339 10332 10324 10317 10311 10304 10294 10285 10277 10270 10261 10255 10248 10240 10232 10228 10223 10215 10206 10198 10189 10179 10170 10163